Flag for China Weather past 2 weeks in Guiyang, Guizhou, China

Now
61 °F

Fog.


Feels Like: 61 °F
Forecast: 61 / 81 °F
Wind: 1 mph from North

Location: Guiyang Airport

Current Time: Aug 31, 2015 at 9:07:36 AM

Latest Report: Aug 31, 2015 at 8:00 AM


Visibility: 2 mi

Pressure: 29.98 "Hg (26.43 "Hg at 1067m altitude)

Humidity: 100%

Dew point: 61 °F

Location of GuiyangLocation

Historic Weather in Guiyang — Graph

°F

Guiyang temperature yesterday

Maximum temperature yesterday: 81 °F (at 2:00 PM)
Minimum temperature yesterday: 59 °F (at 5:00 AM)
Average temperature yesterday: 68 °F

Past Weeks' High & Low Weather Summary

 TemperatureHumidityPressure
High86 °F (Aug 16, 1:00 PM)100% (Aug 16, 8:00 AM)30.09 "Hg (Aug 16, 8:00 AM)
Low57 °F (Aug 22, 6:00 AM)43% (Aug 22, 3:00 PM)29.77 "Hg (Aug 17, 4:00 PM)
Average69 °F89%29.93 "Hg
* Reported Aug 16 8:00 AM — Aug 31 8:00 AM, Guiyang, Weather by CustomWeather, © 2015

Note: Actual official high and low records may vary slightly from our data, if they occured in-between our weather recording intervals... More about our weather records

Advertising

Guiyang weather history for previous 24 hours

 ConditionsComfort  
Time TempWeatherWind HumidityBarometerVisibility
8:00 AM
Mon, Aug 31
61 °FFog.1 mph100%29.98 "Hg2 mi
7:00 AM59 °FFog.1 mph100%29.95 "Hg2 mi
6:00 AM59 °FFog.3 mph100%29.95 "Hg2 mi
5:00 AM59 °FFog.1 mph100%29.95 "Hg2 mi
4:00 AM59 °FFog.1 mph100%29.95 "Hg2 mi
3:00 AM61 °FFog.1 mph100%29.98 "Hg2 mi
2:00 AM61 °FFog.No wind100%29.98 "Hg3 mi
1:00 AM61 °FClear.1 mph100%29.98 "Hg4 mi
12:00 AM63 °FClear.1 mph94%29.98 "Hg4 mi
11:00 PM
Sun, Aug 30
63 °FClear.3 mph94%29.98 "Hg10 mi
10:00 PM64 °FPassing clouds.3 mph88%29.98 "HgN/A
9:00 PM66 °FPassing clouds.3 mph83%29.95 "HgN/A
8:00 PM68 °FClear.3 mph78%29.92 "Hg10 mi
7:00 PM72 °FPassing clouds.3 mph65%29.89 "HgN/A
6:00 PM75 °FScattered clouds.1 mph65%29.89 "HgN/A
5:00 PM81 °FScattered clouds.3 mph54%29.89 "HgN/A
4:00 PM81 °FScattered clouds.6 mph54%29.89 "HgN/A
3:00 PM81 °FScattered clouds.6 mph51%29.92 "HgN/A
2:00 PM81 °FPassing clouds.8 mph51%29.95 "HgN/A
1:00 PM79 °FPassing clouds.8 mph58%29.95 "HgN/A
12:00 PM75 °FPassing clouds.8 mph61%29.98 "HgN/A
11:00 AM72 °FScattered clouds.6 mph73%30.01 "HgN/A
10:00 AM66 °FPassing clouds.1 mph83%30.01 "HgN/A
9:00 AM63 °FScattered clouds.1 mph100%29.98 "Hg4 mi
Weather by CustomWeather, © 2015

See weather overviewHow to use our weather pages